K6MBY Weather Reports


time (UTC)temp
F
wind
direction
speed
knots
gust
knots
rain 1hr
in
rain 24hr
in
rain mn
in
humidity
%
barometer
mb
20260506121612 50 297 5.2 7.8 0.00 0.00 0.00 91 1021.8
20260506121108 50 270 3.5 4.3 0.00 0.00 0.00 91 1021.7
20260506120606 51 293 5.2 7.8 0.00 0.00 0.00 90 1021.6
20260506115601 51 290 3.5 7.8 0.00 0.00 0.00 90 1021.6
20260506115059 51 305 6.1 9.6 0.00 0.00 0.00 90 1021.4
20260506114556 51 325 3.5 8.7 0.00 0.00 0.00 90 1021.6
20260506114054 51 329 5.2 11.3 0.00 0.00 0.00 90 1021.6
20260506113552 51 312 5.2 6.1 0.00 0.00 0.00 90 1021.6
20260506113049 51 328 7.0 9.6 0.00 0.00 0.00 90 1021.4
20260506112546 51 277 4.3 7.0 0.00 0.00 0.00 90 1021.3
20260506112043 51 318 2.6 7.0 0.00 0.00 0.00 90 1021.2
20260506111541 51 288 7.0 11.3 0.00 0.00 0.00 90 1021.4
20260506111038 51 305 7.0 7.8 0.00 0.00 0.00 90 1021.3
20260506110536 51 285 2.6 5.2 0.00 0.00 0.00 90 1021.0
20260506110033 51 320 4.3 6.1 0.00 0.00 0.00 91 1021.2
20260506105528 51 271 3.5 6.1 0.00 0.00 0.00 91 1020.9
20260506105026 51 280 1.7 5.2 0.00 0.00 0.00 91 1020.9
20260506104524 51 317 4.3 6.1 0.00 0.00 0.00 91 1021.0
20260506104022 51 342 2.6 9.6 0.00 0.00 0.00 91 1020.9
20260506103519 51 305 4.3 8.7 0.00 0.00 0.00 91 1020.7
20260506103015 51 309 3.5 7.8 0.00 0.00 0.00 91 1020.8
20260506102514 51 248 3.5 5.2 0.00 0.00 0.00 91 1020.7
20260506102011 51 282 3.5 7.0 0.00 0.00 0.00 91 1020.5
20260506101507 51 276 2.6 5.2 0.00 0.00 0.00 91 1020.7
20260506101004 51 316 4.3 5.2 0.00 0.00 0.00 91 1020.5
20260506100503 51 284 1.7 8.7 0.00 0.00 0.00 91 1020.4
20260506100000 51 279 2.6 5.2 0.00 0.00 0.00 91 1020.6
20260506095459 51 276 3.5 5.2 0.00 0.00 0.00 91 1020.5
20260506094954 51 298 3.5 4.3 0.00 0.00 0.00 91 1020.6
20260506094453 51 287 2.6 7.8 0.00 0.00 0.00 91 1020.4
20260506093950 51 272 4.3 7.8 0.00 0.00 0.00 91 1020.6
20260506093448 51 334 6.1 7.8 0.00 0.00 0.00 91 1020.7
20260506092946 51 294 4.3 7.0 0.00 0.00 0.00 91 1020.5
20260506092444 51 300 3.5 7.0 0.00 0.00 0.00 91 1020.4
20260506091940 51 238 0.9 6.1 0.00 0.00 0.00 91 1020.7
20260506091438 51 262 2.6 4.3 0.00 0.00 0.00 91 1020.6
20260506090935 51 277 3.5 7.0 0.00 0.00 0.00 91 1020.6
20260506090433 51 352 4.3 7.0 0.00 0.00 0.00 91 1020.4
20260506085929 51 271 1.7 7.8 0.00 0.00 0.00 91 1020.6
20260506085426 51 297 6.1 7.8 0.00 0.00 0.00 91 1020.4
20260506084922 51 235 2.6 7.8 0.00 0.00 0.00 91 1020.7
20260506084420 51 300 2.6 4.3 0.00 0.00 0.00 91 1020.5
20260506083915 51 256 6.1 7.0 0.00 0.00 0.00 91 1020.4
20260506083413 51 272 1.7 6.1 0.00 0.00 0.00 91 1020.4
20260506082910 51 315 6.1 8.7 0.00 0.00 0.00 91 1020.5
20260506082407 51 277 5.2 7.0 0.00 0.00 0.00 91 1020.4
20260506081902 51 301 4.3 7.0 0.00 0.00 0.00 91 1020.4
20260506081401 51 285 3.5 13.0 0.00 0.00 0.00 92 1020.3
20260506080858 51 302 3.5 8.7 0.00 0.00 0.00 92 1020.3
20260506080355 51 280 3.5 5.2 0.00 0.00 0.00 92 1020.3
20260506073339 51 248 2.6 6.1 0.00 0.00 0.00 92 1020.0
20260506072836 51 294 3.5 6.1 0.00 0.00 0.00 92 1020.0
20260506072333 51 274 2.6 9.6 0.00 0.00 0.00 92 1019.9
20260506071831 51 284 3.5 7.8 0.00 0.00 0.00 92 1019.8
20260506071329 51 314 2.6 7.0 0.00 0.00 0.00 92 1019.9
20260506070826 51 225 5.2 7.0 0.00 0.00 0.00 93 1019.8
20260506070323 51 314 4.3 6.1 0.00 0.00 0.00 93 1019.6
20260506062300 51 296 4.3 6.1 0.00 0.00 0.00 93 1019.5
20260506061755 51 249 2.6 4.3 0.00 0.00 0.00 93 1019.5
20260506061253 51 287 6.1 7.8 0.00 0.00 0.00 93 1019.4
20260506060751 51 256 4.3 7.8 0.00 0.00 0.00 93 1019.4
20260506060248 51 278 6.1 8.7 0.00 0.00 0.00 93 1019.5
20260506051220 51 324 3.5 7.8 0.00 0.00 0.00 92 1019.5
20260506050718 51 255 5.2 9.6 0.00 0.00 0.00 92 1019.4
20260506050215 51 222 5.2 7.8 0.00 0.00 0.00 92 1019.6
20260506044706 51 281 6.1 8.7 0.00 0.00 0.00 92 1019.5
20260506044203 51 299 6.1 7.0 0.00 0.00 0.00 92 1019.3
20260506043700 51 315 4.3 6.1 0.00 0.00 0.00 92 1019.2
20260506043158 51 256 5.2 8.7 0.00 0.00 0.00 92 1019.3
20260506042657 51 290 3.5 7.0 0.00 0.00 0.00 92 1019.4
20260506042155 51 279 4.3 7.0 0.00 0.00 0.00 92 1019.0
20260506041653 51 296 3.5 6.1 0.00 0.00 0.00 92 1019.0
20260506041149 51 237 2.6 12.2 0.00 0.00 0.00 92 1018.9
20260506040647 51 299 5.2 8.7 0.00 0.00 0.00 92 1018.8
20260506040144 51 258 5.2 9.6 0.00 0.00 0.00 92 1018.7
20260506035641 51 282 4.3 7.8 0.00 0.00 0.00 91 1018.7
20260506035137 51 301 2.6 7.0 0.00 0.00 0.00 91 1018.5
20260506034634 51 301 4.3 7.0 0.00 0.00 0.00 91 1018.6
20260506034131 51 279 7.0 8.7 0.00 0.00 0.00 91 1018.5
20260506033628 51 285 5.2 7.0 0.00 0.00 0.00 91 1018.5
20260506033125 51 277 3.5 7.0 0.00 0.00 0.00 91 1018.4
20260506032623 51 272 5.2 7.0 0.00 0.00 0.00 90 1018.3
20260506032120 51 298 5.2 7.0 0.00 0.00 0.00 90 1018.3
20260506031617 52 239 1.7 7.0 0.00 0.00 0.00 90 1018.3
20260506031114 52 268 5.2 8.7 0.00 0.00 0.00 90 1018.1
20260506030612 52 294 4.3 7.0 0.00 0.00 0.00 89 1018.3
20260506030109 52 269 2.6 7.0 0.00 0.00 0.00 89 1018.3
20260506025606 52 308 5.2 7.0 0.00 0.00 0.00 89 1018.4
20260506025102 53 298 2.6 7.0 0.00 0.00 0.00 88 1018.4
20260506024559 53 297 5.2 8.7 0.00 0.00 0.00 88 1018.5
20260506024055 53 289 4.3 6.1 0.00 0.00 0.00 88 1018.4
20260506023551 53 267 3.5 7.0 0.00 0.00 0.00 87 1018.5
20260506023049 54 288 4.3 11.3 0.00 0.00 0.00 87 1018.4
20260506022547 54 276 4.3 5.2 0.00 0.00 0.00 86 1018.3
20260506022044 54 285 4.3 7.8 0.00 0.00 0.00 86 1018.3
20260506021541 54 302 4.3 8.7 0.00 0.00 0.00 85 1018.5
20260506021038 54 285 2.6 7.0 0.00 0.00 0.00 85 1018.2
20260506020536 54 281 3.5 9.6 0.00 0.00 0.00 85 1018.4
20260506020033 54 266 2.6 11.3 0.00 0.00 0.00 85 1018.5
20260506015531 54 298 5.2 12.2 0.00 0.00 0.00 85 1018.5
20260506015027 54 252 4.3 6.1 0.00 0.00 0.00 85 1018.3
20260506014525 55 288 4.3 7.0 0.00 0.00 0.00 84 1018.3
20260506014021 55 292 2.6 9.6 0.00 0.00 0.00 83 1018.3
20260506013519 56 209 4.3 9.6 0.00 0.00 0.00 82 1018.4
20260506013015 56 261 4.3 7.0 0.00 0.00 0.00 82 1018.5
20260506012511 56 260 3.5 8.7 0.00 0.00 0.00 83 1018.6
20260506012009 56 313 4.3 7.8 0.00 0.00 0.00 82 1018.2
20260506011506 56 277 3.5 9.6 0.00 0.00 0.00 83 1018.5
20260506011002 56 311 4.3 7.8 0.00 0.00 0.00 81 1018.4
20260506010502 56 282 2.6 7.0 0.00 0.00 0.00 82 1018.3
20260506005957 56 284 3.5 7.0 0.00 0.00 0.00 82 1018.4
20260506005455 56 288 3.5 11.3 0.00 0.00 0.00 82 1018.3
20260506004950 56 294 4.3 7.0 0.00 0.00 0.00 82 1018.5
20260506004448 57 301 4.3 6.1 0.00 0.00 0.00 81 1018.4
20260506003944 57 259 4.3 8.7 0.00 0.00 0.00 81 1018.5
20260506003441 57 259 4.3 6.1 0.00 0.00 0.00 81 1018.6
20260506002937 56 271 4.3 8.7 0.00 0.00 0.00 82 1018.6
20260506002433 56 271 4.3 7.8 0.00 0.00 0.00 82 1018.6
20260506001928 57 287 3.5 7.8 0.00 0.00 0.00 81 1018.5
20260506001426 57 299 2.6 7.0 0.00 0.00 0.00 81 1018.7
20260506000923 57 275 3.5 6.1 0.00 0.00 0.00 81 1018.6
20260506000423 56 263 2.6 6.1 0.00 0.00 0.00 82 1018.7
20260505235917 56 290 1.7 7.8 0.00 0.00 0.00 82 1019.0
20260505235415 57 270 3.5 9.6 0.00 0.00 0.00 80 1018.7
20260505234912 57 203 2.6 7.8 0.00 0.00 0.00 81 1019.0
20260505234409 57 301 3.5 9.6 0.00 0.00 0.00 81 1018.8
20260505233906 57 279 4.3 6.1 0.00 0.00 0.00 80 1019.1
20260505233404 57 277 3.5 7.8 0.00 0.00 0.00 80 1018.9
20260505232901 57 323 6.1 12.2 0.00 0.00 0.00 80 1018.9
20260505232359 57 306 5.2 7.0 0.00 0.00 0.00 79 1018.9
20260505231855 57 301 2.6 7.8 0.00 0.00 0.00 81 1019.1
20260505231353 57 267 3.5 8.7 0.00 0.00 0.00 81 1019.1
20260505230851 59 310 5.2 7.0 0.00 0.00 0.00 78 1019.2
20260505230348 58 269 2.6 6.1 0.00 0.00 0.00 80 1019.3
20260505225844 59 281 5.2 9.6 0.00 0.00 0.00 78 1019.3
20260505225342 58 293 4.3 7.8 0.00 0.00 0.00 79 1019.3
20260505224836 58 300 4.3 7.8 0.00 0.00 0.00 79 1019.4
20260505224335 59 275 4.3 5.2 0.00 0.00 0.00 77 1019.4
20260505223832 59 254 2.6 5.2 0.00 0.00 0.00 78 1019.2
20260505223329 59 270 2.6 4.3 0.00 0.00 0.00 77 1019.4
20260505222824 58 323 5.2 7.8 0.00 0.00 0.00 80 1019.4
20260505222320 58 358 4.3 6.1 0.00 0.00 0.00 79 1019.4
20260505221818 59 23 3.5 11.3 0.00 0.00 0.00 80 1019.4
20260505221315 58 290 2.6 7.8 0.00 0.00 0.00 80 1019.4
20260505220812 57 316 3.5 7.8 0.00 0.00 0.00 81 1019.5
20260505220309 58 334 7.8 8.7 0.00 0.00 0.00 80 1019.4
20260505215807 57 296 1.7 8.7 0.00 0.00 0.00 82 1019.5
20260505215305 58 2 6.1 7.8 0.00 0.00 0.00 80 1019.7
20260505214802 59 256 3.5 5.2 0.00 0.00 0.00 79 1019.7
20260505214259 58 312 2.6 6.1 0.00 0.00 0.00 80 1019.5
20260505213756 58 259 2.6 4.3 0.00 0.00 0.00 80 1019.7
20260505213254 59 285 2.6 5.2 0.00 0.00 0.00 79 1019.8
20260505212749 58 322 3.5 7.0 0.00 0.00 0.00 82 1019.9
20260505212247 58 266 1.7 5.2 0.00 0.00 0.00 80 1019.7
20260505211744 58 264 2.6 5.2 0.00 0.00 0.00 82 1019.7
20260505211241 57 202 0.9 7.0 0.00 0.00 0.00 83 1019.9
20260505210737 57 266 2.6 5.2 0.00 0.00 0.00 82 1019.5
20260505210234 57 321 2.6 4.3 0.00 0.00 0.00 81 1019.7
20260505205732 57 309 2.6 4.3 0.00 0.00 0.00 82 1019.7
20260505205230 57 264 2.6 5.2 0.00 0.00 0.00 82 1019.7
20260505204726 58 274 2.6 2.6 0.00 0.00 0.00 81 1019.7
20260505204224 57 321 1.7 2.6 0.00 0.00 0.00 82 1019.7
20260505203721 57 281 3.5 6.1 0.00 0.00 0.00 83 1019.8
20260505203218 57 260 1.7 5.2 0.00 0.00 0.00 83 1019.8
20260505202713 57 268 2.6 7.0 0.00 0.00 0.00 84 1019.7
20260505202210 57 308 4.3 5.2 0.00 0.00 0.00 83 1019.9
20260505201706 57 243 0.9 6.1 0.00 0.00 0.00 84 1019.8
20260505201204 56 313 3.5 7.0 0.00 0.00 0.00 85 1019.8
20260505200702 57 303 2.6 7.0 0.00 0.00 0.00 84 1019.9
20260505200159 58 298 2.6 2.6 0.00 0.00 0.00 82 1019.7
20260505195654 57 282 2.6 2.6 0.00 0.00 0.00 82 1019.7
20260505195152 58 256 0.9 2.6 0.00 0.00 0.00 83 1019.8
20260505194649 57 268 1.7 2.6 0.00 0.00 0.00 83 1019.8
20260505194145 56 336 3.5 5.2 0.00 0.00 0.00 85 1019.7
20260505193642 56 350 3.5 5.2 0.00 0.00 0.00 85 1019.8
20260505193139 56 342 2.6 6.1 0.00 0.00 0.00 85 1019.8
20260505192638 56 309 1.7 4.3 0.00 0.00 0.00 86 1019.6
20260505192134 56 342 2.6 6.1 0.00 0.00 0.00 86 1019.7
20260505191633 55 241 0.9 2.6 0.00 0.00 0.00 86 1020.0
20260505191131 55 348 1.7 4.3 0.00 0.00 0.00 87 1019.9
20260505190626 55 292 2.6 4.3 0.00 0.00 0.00 87 1019.7
20260505190121 55 279 1.7 2.6 0.00 0.00 0.00 87 1019.6
20260505185618 55 313 2.6 4.3 0.00 0.00 0.00 88 1019.7
20260505185114 54 335 2.6 6.1 0.00 0.00 0.00 89 1019.6
20260505184611 54 335 4.3 5.2 0.00 0.00 0.00 88 1019.7
20260505184108 55 305 2.6 2.6 0.00 0.00 0.00 88 1019.7
20260505183605 54 304 2.6 4.3 0.00 0.00 0.00 88 1019.9
20260505183103 55 295 2.6 2.6 0.00 0.00 0.00 87 1019.8
20260505182558 55 264 1.7 1.7 0.00 0.00 0.00 87 1019.8
20260505182055 54 207 0.9 1.7 0.00 0.00 0.00 88 1019.9
20260505181552 54 308 3.5 6.1 0.00 0.00 0.00 88 1019.7
20260505181049 53 315 1.7 6.1 0.00 0.00 0.00 89 1019.8
20260505180545 54 240 2.6 5.2 0.00 0.00 0.00 89 1019.6
20260505180043 53 335 6.1 7.0 0.00 0.00 0.00 89 1019.5
20260505175538 54 359 3.5 7.0 0.00 0.00 0.00 90 1019.7
20260505175035 54 331 5.2 6.1 0.00 0.00 0.00 89 1019.5
20260505174532 53 7 4.3 6.1 0.00 0.00 0.00 90 1019.5
20260505174028 53 351 5.2 7.0 0.00 0.00 0.00 90 1019.3
20260505173525 53 9 4.3 6.1 0.00 0.00 0.00 90 1019.5
20260505173022 53 296 3.5 5.2 0.00 0.00 0.00 90 1019.4
20260505172520 53 336 3.5 7.0 0.00 0.00 0.00 90 1019.3
20260505172015 53 344 3.5 5.2 0.00 0.00 0.00 91 1019.4
20260505171511 53 6 6.1 7.0 0.00 0.00 0.00 91 1019.2
20260505171008 53 0 4.3 5.2 0.00 0.00 0.00 92 1019.4
20260505170504 53 316 2.6 5.2 0.00 0.00 0.00 92 1019.2
20260505165959 53 351 2.6 4.3 0.00 0.00 0.00 92 1019.4
20260505165456 53 8 1.7 4.3 0.00 0.00 0.00 93 1019.3
20260505164951 52 327 2.6 4.3 0.00 0.00 0.00 94 1019.4
20260505164448 52 1 4.3 5.2 0.00 0.00 0.00 95 1019.4
20260505163946 52 323 4.3 5.2 0.00 0.00 0.00 95 1019.3
20260505163444 52 297 1.7 5.2 0.00 0.00 0.00 96 1019.3
20260505162944 52 343 5.2 6.1 0.00 0.00 0.00 96 1019.3
20260505162439 52 354 4.3 5.2 0.00 0.00 0.00 96 1019.3
20260505161936 52 319 2.6 2.6 0.00 0.00 0.00 96 1019.2
20260505161432 51 332 3.5 5.2 0.00 0.00 0.00 96 1019.3
20260505160930 51 327 3.5 5.2 0.00 0.00 0.00 96 1019.2
20260505160428 51 299 3.5 6.1 0.00 0.00 0.00 96 1019.2
20260505152904 52 259 0.9 1.7 0.00 0.00 0.00 96 1018.8
20260505152401 52 271 0.9 0.9 0.00 0.00 0.00 96 1018.9
20260505151855 52 274 1.7 2.6 0.00 0.00 0.00 96 1018.9
20260505151352 52 258 0.9 1.7 0.00 0.00 0.00 96 1019.1
20260505150850 51 313 1.7 2.6 0.00 0.00 0.00 96 1018.7
20260505150347 51 267 0.9 2.6 0.00 0.00 0.00 96 1018.7
20260505140317 51 245 0.0 0.9 0.00 0.00 0.00 94 1018.1
20260505130240 51 281 2.6 2.6 0.00 0.00 0.00 94 1017.3
20260505124731 51 281 1.7 2.6 0.00 0.00 0.00 94 1017.2
20260505124228 51 278 1.7 5.2 0.00 0.00 0.00 94 1017.4
20260505123723 51 301 2.6 4.3 0.00 0.00 0.00 94 1017.3
20260505123220 51 281 2.6 2.6 0.00 0.00 0.00 94 1017.4
20260505122716 51 281 0.9 1.7 0.00 0.00 0.00 94 1017.1
20260505122214 51 268 0.9 2.6 0.00 0.00 0.00 94 1017.1